If you wish to contribute or participate in the discussions about articles you are invited to join SKYbrary as a registered user

 Actions

Abu Musa Airport

From SKYbrary Wiki

OIBA
Airport
ICAO: OIBA – IATA: AEU
Summary
Name Abu Musa Airport
Region Asia and Pacific
Territory Iran IR.gif
Location Abu Musa Island, Hormozgan
Serving Abu Musa
Elevation 7.01 m
23 ft7.01 m
Coordinates 25° 52' 33.42" N, 55° 1' 57.84" E
Runways
Designator Length Width Surface ROPS
8/26 2986 m9,796.588 ft
45 m147.638 ft
ASP /


METAR
Observation OIBA 161300Z 28010KT 6000 NSC 26/18 Q1009
Station Abumusa Island / Abumusa
Date/Time 16 April 2019 13:00:00
Wind direction 280°
Wind speed 10 kts
Lowest cloud amount nil significant cloud
Temperature 26°C
Dew point 18°C
Humidity 61%
QNH 1009 hPa
Weather condition n/a

Abu Musa Airport or Abumusa Airport is an airport serving Abu Musa Island, in the Hormozgan Province in Iran.

Climatology

Hot desert climate (Köppen climate classification BWh).

Maps

Terrain

Loading map...

Airport Layout

Loading map...


Accidents & Serious Incidents at or in vicinity of OIBA

None on SKYbrary